Vertical_Velocity
-2 -1 -2 -1 1 3 -3 2 -4 -6 -12 5 5 -2 0 -3 -1 0 -1 1 -0 -1 -0 -1 -0 -1 -1 -1 -0 -1 2 2 0 -0 0 1 0 -1 -1 -1 -0 -1 -1 -0
-6 3 1 -5 -0 0 0 0 -5 2 -28 12 0 1 -1 2 0 -0 -0 -1 1 1 0 1 0 -0 0 1 1 0 3 3 -1 -0 0 0 1 -0 -0 -1 -1 0 0 -0
-3 0 -0 -6 0 1 1 1 5 -4 10 1 -0 -1 -0 3 -0 0 1 1 1 0 -0 0 0 -1 -0 -1 -0 1 1 0 0 -0 0 -1 -1 -1 -1 -1 -0 -1 -1 -1
-4 -1 -2 -1 -1 -0 -1 -0 -3 -1 0 1 2 4 3 -3 -1 0 -1 -1 0 -1 -1 -0 -1 -1 -0 -0 -0 -1 2 2 0 -1 -0 -1 -0 -0 0 -0 0 0 -1 -1
0 -0 -3 1 1 1 -1 2 2 3 3 2 -0 -2 11 -1 -2 -2 -1 0 -2 -2 -2 -0 -0 -2 -1 2 -2 1 2 -1 -2 -2 2 1 1 -0 -0 -0 0 -1 -0 -1
1 1 -1 0 1 2 1 1 3 4 2 -3 -2 -7 4 2 4 2 2 -0 -3 -1 -2 -2 1 -3 -2 2 1 4 -5 -1 -1 -1 1 1 -1 -1 -1 -0 1 -1 1 -2
-0 -3 -2 4 3 1 1 2 2 0 0 -0 -3 -2 -5 -1 1 1 -3 -2 0 -2 -2 0 -0 -4 -0 -2 4 -4 1 1 3 1 -0 -1 0 0 -0 -0 -1 1 0 1
2 -1 -6 -2 1 -1 -2 -0 -1 -2 -3 -4 -2 -1 -2 -2 -4 -4 -4 0 3 -1 1 4 1 -3 -1 1 -3 -2 -1 3 2 1 0 1 -2 3 0 -0 -1 2 -2 3
-2 4 3 2 2 -0 -2 -2 -3 -4 -1 -4 -3 -2 -2 -3 -3 -1 -2 0 -0 -3 -1 3 2 -2 1 4 -2 -3 -1 0 1 -0 1 -1 -1 2 1 0 0 4 1 1
2 -1 2 5 6 1 -2 3 4 2 0 -1 -3 -1 -0 -2 -1 -2 -2 -4 -3 -1 0 0 -2 0 -2 2 -0 2 2 2 1 -1 1 0 -1 -2 -3 -0 -3 -3 -0 -1
-3 2 4 2 -3 0 1 1 1 1 -1 1 -1 1 -2 -2 -2 -3 -4 -4 -4 -4 -2 -1 1 1 -1 -0 -1 -0 1 2 1 0 1 1 -0 0 -0 2 -1 -1 1 -3
-7 0 3 5 4 1 -1 -1 0 -2 5 3 0 1 0 1 -0 -3 -3 -1 1 1 -2 -3 -2 1 2 -2 -2 1 3 0 -2 -3 -3 -2 -0 2 -2 2 2 1 -1 -1
1 2 1 2 3 -0 -1 -1 -1 -1 -4 -3 -0 -6 -4 -5 -0 -0 -0 -1 0 -2 -2 -1 -0 -1 -3 2 1 -0 0 1 1 -0 -1 0 1 1 5 -4 -1 2 1 -1
3 1 2 -1 -4 -2 2 2 1 -1 -2 -4 -2 1 -0 -2 -0 -1 -3 -2 -2 -3 -4 -3 -2 -3 -2 -0 0 -1 -1 -2 -0 2 2 -1 -1 1 0 2 6 1 -2 1
2 1 2 1 -0 3 2 2 4 3 2 2 1 -2 -1 -1 0 -1 -1 -3 -3 -3 -2 -0 -1 -2 -2 -2 -2 -1 1 1 0 -1 2 3 2 -1 -1 1 1 1 5 5
3 2 1 1 1 -0 0 2 2 4 7 5 2 1 -2 -3 -4 -5 -5 -5 -9 -11 -9 -3 -1 -2 0 0 -1 -1 1 2 2 2 1 -0 1 4 3 -1 -3 -2 -0 -2
2 3 2 1 1 3 6 5 -1 -4 -6 -2 -1 -0 -1 -0 0 -1 2 1 -0 0 -2 -8 -1 -2 -2 -0 1 1 -0 -1 -1 1 2 2 3 0 1 -0 2 0 1 -1
0 -1 -1 -2 -2 -3 -1 2 -1 -2 -4 -6 -9 -11 -5 1 -0 0 -7 -4 -3 -1 12 -4 -8 -7 -1 -2 2 -1 -1 1 -0 -1 -1 -1 0 3 -0 -3 -0 -2 0 0
-2 0 0 -1 -1 -4 -4 -3 -4 -5 -3 -4 -4 -2 -3 -3 -8 -11 -4 -2 -4 -12 3 1 2 -4 -5 -0 2 4 5 2 4 4 1 -2 -4 0 -2 -2 -2 -1 -1 -1
1 -1 -2 -3 1 -1 -6 -0 -6 -7 -1 -5 -5 -2 -6 3 3 1 -5 -10 3 1 -7 -2 3 3 0 3 -3 -7 0 0 -1 4 4 4 4 3 1 -0 -0 -1 0 1
-2 -2 -1 -3 -7 -2 -0 -1 -3 -2 -1 -0 -5 -4 -8 -8 -3 -3 -7 -14 12 3 -1 -0 -0 1 5 5 -2 -0 3 -7 -5 -4 -4 -1 -2 2 2 2 2 1 -1 -1
-3 -6 -6 -3 -2 -3 5 0 0 -3 -6 -7 -1 -2 -2 -4 -3 -3 5 -3 -8 5 -0 1 0 8 1 0 3 9 2 -1 -1 1 1 2 -1 -1 0 -0 0 2 0 -1
-6 -3 -4 -1 -1 -4 -4 0 -4 -3 -6 2 -1 0 -0 -3 -1 -7 -14 10 -2 -1 -1 -3 0 -1 2 2 2 5 6 5 1 0 1 1 1 -1 -3 -2 -2 -2 -2 -3
0 2 -2 0 -1 -5 -9 -1 2 -1 1 -1 1 6 5 -5 -14 13 2 -10 4 -3 -4 0 -5 -0 2 -4 0 3 0 -2 1 1 1 1 -1 -1 -2 -2 -0 0 -1 -1
-1 -5 -6 -5 -2 2 0 2 -4 2 -1 1 -1 -1 3 7 -2 -7 -1 -4 -2 5 -5 -0 -1 1 0 2 3 3 -1 -3 0 -0 -0 -0 -1 -1 -0 -1 1 -0 -1 -0
-0 -2 -2 3 2 1 -2 -3 -7 -3 1 -8 -7 -6 -3 1 -1 -5 1 -2 -4 1 -0 -1 2 0 2 2 1 1 0 -1 -1 1 -0 -1 -2 -1 -0 -0 -2 -1 -1 -0
-6 3 -4 -3 11 2 -1 1 -5 -8 4 -3 -7 -3 -6 -2 1 -1 -1 0 -2 -3 0 2 1 2 0 0 0 -1 -1 -0 2 1 1 -0 -0 -1 -2 -1 -1 -0 0 -0
Height
3114 3114 3113 3113 3113 3114 3111 3111 3108 3103 3101 3103 3105 3102 3101 3099 3096 3093 3091 3090 3088 3086 3085 3083 3082 3081 3080 3079 3078 3077 3077 3077 3076 3076 3076 3075 3073 3072 3070 3069 3068 3066 3063 3061
3109 3110 3108 3104 3104 3104 3104 3103 3100 3100 3095 3100 3099 3099 3098 3096 3093 3090 3088 3086 3083 3081 3079 3078 3077 3076 3075 3073 3072 3071 3071 3071 3070 3070 3070 3070 3068 3066 3065 3064 3062 3060 3058 3056
3106 3104 3103 3098 3093 3095 3096 3096 3097 3094 3095 3095 3095 3095 3095 3093 3091 3088 3086 3083 3081 3078 3076 3073 3071 3070 3068 3067 3066 3065 3064 3064 3064 3063 3063 3062 3062 3061 3059 3058 3056 3054 3052 3050
3105 3104 3102 3092 3091 3092 3092 3092 3092 3092 3092 3092 3093 3094 3093 3089 3087 3084 3081 3078 3075 3072 3070 3068 3066 3063 3061 3061 3059 3058 3058 3058 3057 3056 3056 3055 3055 3054 3052 3051 3049 3047 3045 3043
3104 3100 3093 3089 3088 3090 3090 3091 3091 3091 3091 3091 3090 3089 3090 3086 3082 3079 3074 3071 3068 3066 3063 3060 3059 3056 3054 3054 3053 3051 3051 3050 3049 3049 3049 3049 3048 3046 3045 3043 3041 3039 3037 3035
3102 3100 3092 3088 3087 3087 3087 3088 3088 3089 3088 3086 3085 3082 3082 3079 3077 3074 3071 3067 3062 3059 3056 3054 3052 3048 3047 3047 3045 3045 3043 3041 3041 3041 3040 3040 3038 3037 3036 3034 3032 3030 3029 3026
3098 3098 3087 3086 3086 3085 3088 3092 3086 3085 3084 3082 3080 3078 3074 3071 3070 3067 3063 3059 3055 3051 3048 3046 3044 3041 3039 3038 3039 3035 3034 3034 3033 3032 3031 3030 3029 3027 3026 3024 3022 3021 3019 3017
3091 3093 3088 3084 3085 3085 3085 3083 3082 3081 3079 3076 3073 3070 3068 3065 3062 3059 3056 3053 3049 3044 3042 3040 3036 3032 3031 3031 3029 3027 3026 3025 3024 3023 3021 3020 3019 3018 3015 3013 3011 3010 3008 3006
3086 3083 3082 3082 3081 3080 3078 3077 3076 3073 3071 3068 3065 3063 3060 3057 3054 3051 3047 3044 3041 3037 3034 3033 3028 3024 3022 3022 3019 3018 3017 3016 3015 3013 3012 3010 3008 3007 3005 3002 3000 2999 2996 2994
3080 3079 3078 3077 3075 3072 3071 3069 3067 3066 3064 3061 3058 3055 3053 3050 3046 3044 3041 3037 3033 3029 3026 3024 3021 3017 3013 3012 3010 3009 3007 3006 3004 3002 3001 2999 2997 2994 2992 2991 2988 2986 2984 2982
3073 3073 3074 3070 3068 3067 3066 3064 3061 3059 3056 3051 3049 3047 3045 3042 3039 3036 3032 3029 3026 3021 3017 3014 3012 3009 3005 3002 2999 2999 2997 2996 2994 2992 2990 2988 2986 2983 2980 2978 2974 2973 2972 2970
3066 3066 3065 3063 3062 3062 3060 3058 3054 3052 3051 3045 3042 3040 3037 3034 3030 3026 3023 3020 3017 3013 3009 3006 3003 3000 2995 2992 2990 2988 2987 2985 2983 2981 2979 2977 2975 2973 2970 2969 2967 2964 2962 2960
3061 3060 3058 3057 3055 3053 3051 3050 3047 3044 3042 3042 3038 3035 3032 3029 3024 3019 3015 3011 3007 3003 3000 2997 2994 2991 2986 2984 2980 2978 2976 2974 2971 2969 2967 2966 2965 2964 2963 2958 2959 2957 2955 2954
3052 3053 3053 3053 3050 3047 3044 3043 3041 3039 3036 3034 3032 3029 3025 3022 3019 3014 3009 3006 3002 2997 2993 2989 2986 2982 2979 2975 2972 2969 2967 2965 2963 2961 2959 2957 2956 2955 2954 2953 2951 2949 2946 2945
3045 3045 3045 3043 3041 3039 3038 3037 3036 3034 3032 3030 3026 3023 3019 3016 3012 3008 3004 2999 2996 2991 2986 2983 2978 2974 2971 2967 2964 2961 2958 2956 2955 2954 2952 2950 2949 2947 2946 2945 2944 2943 2941 2938
3039 3038 3036 3034 3034 3033 3032 3031 3029 3028 3025 3022 3019 3017 3013 3009 3006 3003 2999 2994 2989 2985 2981 2977 2973 2968 2964 2960 2957 2954 2952 2950 2948 2947 2946 2945 2942 2941 2939 2938 2937 2935 2934 2931
3033 3031 3030 3028 3028 3027 3026 3024 3021 3018 3017 3014 3011 3008 3006 3002 2998 2995 2992 2988 2984 2980 2975 2970 2967 2962 2959 2956 2952 2948 2946 2944 2943 2941 2939 2938 2935 2933 2931 2928 2927 2925 2923 2920
3026 3025 3023 3023 3021 3020 3019 3016 3013 3010 3007 3004 3002 2999 2996 2993 2989 2985 2982 2980 2977 2974 2971 2964 2961 2957 2954 2951 2948 2944 2941 2939 2937 2935 2932 2930 2927 2924 2921 2919 2916 2913 2911 2908
3020 3019 3018 3017 3016 3013 3010 3007 3003 3000 2998 2995 2992 2990 2987 2985 2980 2977 2974 2971 2968 2964 2963 2958 2953 2949 2946 2943 2940 2937 2935 2932 2930 2927 2924 2921 2918 2915 2911 2908 2905 2902 2898 2895
3015 3014 3011 3010 3008 3004 3001 2998 2993 2990 2988 2984 2980 2978 2974 2972 2969 2964 2962 2959 2958 2951 2949 2947 2943 2940 2937 2934 2931 2929 2927 2924 2921 2918 2914 2911 2908 2905 2901 2898 2894 2890 2886 2883
3009 3007 3004 3001 2998 2995 2991 2987 2982 2979 2976 2972 2969 2965 2961 2957 2954 2949 2946 2942 2946 2937 2934 2933 2930 2928 2926 2923 2920 2918 2916 2913 2910 2907 2903 2900 2897 2893 2889 2886 2882 2878 2874 2871
3001 2998 2995 2990 2986 2982 2980 2976 2973 2968 2965 2962 2959 2955 2949 2944 2940 2936 2934 2929 2926 2923 2918 2916 2914 2911 2909 2907 2905 2903 2901 2899 2897 2894 2890 2887 2884 2881 2878 2874 2870 2866 2862 2859
2989 2986 2982 2979 2976 2972 2969 2966 2963 2960 2956 2953 2948 2945 2940 2934 2929 2923 2918 2920 2913 2910 2905 2902 2899 2896 2892 2890 2889 2888 2886 2883 2882 2880 2877 2874 2870 2867 2864 2861 2857 2854 2850 2847
2980 2976 2972 2969 2966 2962 2959 2957 2953 2950 2946 2943 2940 2936 2931 2925 2921 2919 2911 2906 2902 2898 2894 2891 2887 2883 2879 2875 2873 2872 2871 2870 2867 2865 2863 2860 2857 2854 2852 2848 2845 2841 2838 2835
2969 2965 2962 2959 2955 2952 2948 2945 2941 2939 2937 2934 2931 2927 2923 2918 2911 2907 2903 2898 2894 2887 2883 2880 2874 2870 2867 2864 2861 2859 2857 2856 2855 2853 2851 2848 2846 2843 2840 2837 2834 2831 2828 2825
2958 2954 2951 2949 2945 2942 2939 2935 2932 2930 2927 2924 2921 2918 2913 2908 2903 2898 2892 2888 2883 2877 2872 2868 2864 2859 2855 2852 2850 2848 2846 2844 2843 2842 2840 2838 2836 2834 2831 2828 2825 2822 2818 2815
2946 2944 2941 2938 2937 2934 2931 2927 2924 2921 2918 2914 2908 2907 2902 2899 2894 2888 2884 2878 2873 2868 2862 2858 2854 2850 2845 2841 2839 2837 2835 2833 2832 2831 2830 2828 2826 2824 2822 2819 2816 2812 2809 2806